Location: Blandford
(50.8667°N, 2.1667°W)
Time: 08:26:11
(UTC+00:00)

Cosmos 220 Rocket - Pass Details

Date: 09 April 2020
Orbit: 574 x 618 km, 74.0° (Epoch: 01 June)

Event Time Altitude Azimuth Distance (km) Brightness Sun altitude
Rises 20:50:07 0° 332° (NNW) 2,841 8.7 -17.1°
Reaches altitude 10° 20:52:21 10° 329° (NNW) 1,942 7.7 -17.4°
Maximum altitude 20:56:36 58° 251° (WSW) 708 4.5 -17.9°
Enters shadow 20:58:59 25° 181° (S) 1,239 5.2 -18.2°
